Location: Bishausen
(51.6334°N, 9.9631°E)
Time: 18:09:02
(UTC+00:00)

COSMOS 2251 DEB - Visible Passes

Search period start: 07 October 2024 00:00
Search period end: 17 October 2024 00:00
Orbit: 721 x 745 km, 74.0° (Epoch: 06 October)

Date Brightness Start Highest point End Pass type
(mag) Time Alt. Az. Time Alt. Az. Time Alt. Az.
07 Oct ? 01:57:13 10° NNE 01:58:15 11° NNE 01:59:17 10° NE visible
07 Oct ? 03:36:24 10° NNW 03:41:06 39° NE 03:45:47 10° SE visible
07 Oct ? 18:13:00 10° SSE 18:17:29 33° ESE 18:21:59 10° NE visible
07 Oct ? 19:53:53 10° SW 19:58:42 43° WNW 20:03:32 10° NNE visible
07 Oct ? 21:39:41 10° NW 21:41:26 12° NNW 21:43:10 10° NNW visible
08 Oct ? 02:49:17 10° N 02:53:18 23° NE 02:57:17 10° E visible
08 Oct ? 04:30:08 10° NNW 04:35:09 71° WSW 04:40:07 10° SSE visible
08 Oct ? 17:27:11 10° SE 17:30:26 17° E 17:33:41 10° NE visible
08 Oct ? 19:06:03 10° SSW 19:11:08 79° WNW 19:16:12 10° NNE visible
08 Oct ? 20:49:53 10° W 20:53:18 18° NW 20:56:42 10° N visible
09 Oct ? 02:02:26 10° N 02:05:16 15° NE 02:08:06 10° ENE visible
09 Oct ? 03:42:41 10° NNW 03:47:40 62° ENE 03:52:37 10° SE visible
09 Oct ? 18:18:46 10° S 18:23:42 55° ESE 18:28:38 10° NNE visible
09 Oct ? 20:00:59 10° WSW 20:05:20 28° NW 20:09:41 10° N visible
10 Oct ? 02:55:22 10° NNW 02:59:58 35° NE 03:04:33 10° ESE visible
10 Oct ? 04:36:40 10° NW 04:41:23 42° WSW 04:46:04 10° S visible
10 Oct ? 17:32:08 10° SSE 17:36:26 29° ESE 17:40:45 10° NE visible
10 Oct ? 19:12:39 10° SW 19:17:33 49° WNW 19:22:26 10° NNE visible
10 Oct ? 20:57:59 10° WNW 21:00:09 13° NW 21:02:19 10° N visible
11 Oct ? 02:08:14 10° N 02:12:03 21° NE 02:15:52 10° E visible
11 Oct ? 03:48:58 10° NNW 03:54:00 81° WSW 03:59:00 10° SSE visible
11 Oct ? 18:24:51 10° SSW 18:29:55 89° WNW 18:34:59 10° NNE visible
11 Oct ? 20:08:21 10° W 20:11:59 19° NW 20:15:37 10° N visible
12 Oct ? 01:21:24 10° N 01:23:55 14° NE 01:26:26 10° ENE visible
12 Oct ? 03:01:29 10° NNW 03:06:25 55° ENE 03:11:20 10° SE visible
12 Oct ? 04:43:21 10° NW 04:47:24 25° W 04:51:26 10° SSW visible
12 Oct ? 17:37:38 10° S 17:42:28 48° ESE 17:47:18 10° NE visible
12 Oct ? 19:19:30 10° WSW 19:23:59 31° NW 19:28:29 10° N visible
13 Oct ? 02:14:09 10° N 02:18:37 31° NE 02:23:03 10° ESE visible
13 Oct ? 03:55:19 10° NW 04:00:07 48° WSW 04:04:55 10° S visible
13 Oct ? 18:31:13 10° SW 18:36:10 55° WNW 18:41:07 10° NNE visible
13 Oct ? 20:16:07 10° WNW 20:18:39 14° NW 20:21:11 10° N visible
14 Oct ? 01:26:58 10° N 01:30:35 19° NE 01:34:10 10° E visible
14 Oct ? 03:07:35 10° NNW 03:12:38 89° ENE 03:17:39 10° SSE visible
14 Oct ? 04:50:26 10° WNW 04:53:11 15° W 04:55:57 10° SW visible
14 Oct ? 17:43:28 10° SSW 17:48:30 81° ESE 17:53:33 10° NNE visible
14 Oct ? 19:26:37 10° W 19:30:26 21° NW 19:34:17 10° N visible
15 Oct?00:45:11ENE00:45:11ENE00:39:34Nvisible
15 Oct ? 02:25:03 48° ENE 02:25:03 48° ENE 02:29:47 10° SE visible
15 Oct ? 04:04:55 26° WNW 04:06:01 29° WSW 04:10:16 10° SSW visible
15 Oct ? 16:56:17 10° S 17:01:01 42° ESE 17:05:44 10° NE visible
15 Oct ? 18:37:48 10° WSW 18:42:25 35° NW 18:47:02 10° NNE visible
16 Oct?01:42:04ESE01:42:04ESE01:30:41NNWvisible
16 Oct ? 03:21:47 21° S 03:21:47 21° S 03:23:30 10° S visible
16 Oct ? 17:49:34 10° SW 17:54:33 62° WNW 17:59:34 10° NNE visible
16 Oct ? 19:34:04 10° WNW 19:36:56 15° NW 19:39:48 10° N visible
